Time,TemperatureF,DewpointF,PressureIn,WindDirection,WindDirectionDegrees,WindSpeedMPH,WindSpeedGustMPH,Humidity,HourlyPrecipIn,Conditions,Clouds,dailyrainin,SoftwareType,DateUTC
2013-10-08 00:04:00,73.0,72.0,29.78,South,178,0.0,-999.0,97,-99.99,,,-99.99,,2013-10-08 04:04:00,
2013-10-08 00:14:00,73.0,72.0,29.78,South,178,0.0,-999.0,97,-99.99,,,-99.99,,2013-10-08 04:14:00,
2013-10-08 00:23:00,74.0,73.0,29.78,South,178,0.0,-999.0,98,-99.99,,,-99.99,,2013-10-08 04:23:00,
2013-10-08 00:34:00,74.0,73.0,29.78,South,178,0.0,-999.0,98,-99.99,,,-99.99,,2013-10-08 04:34:00,
2013-10-08 00:43:00,74.0,73.0,29.78,South,178,0.0,-999.0,98,-99.99,,,-99.99,,2013-10-08 04:43:00,
2013-10-08 00:53:00,74.0,73.0,29.77,South,178,0.0,-999.0,98,-99.99,,,-99.99,,2013-10-08 04:53:00,
2013-10-08 01:03:00,74.0,73.0,29.77,South,178,0.0,-999.0,98,-99.99,,,-99.99,,2013-10-08 05:03:00,
2013-10-08 01:13:00,74.0,73.0,29.77,South,178,0.0,-999.0,98,-99.99,,,-99.99,,2013-10-08 05:13:00,
2013-10-08 01:22:00,74.0,73.0,29.76,South,178,0.0,-999.0,98,-99.99,,,-99.99,,2013-10-08 05:22:00,
2013-10-08 01:33:00,74.0,73.0,29.76,South,178,0.0,-999.0,98,-99.99,,,-99.99,,2013-10-08 05:33:00,
2013-10-08 01:53:00,74.0,73.0,29.75,South,175,0.0,-999.0,98,-99.99,,,-99.99,,2013-10-08 05:53:00,
2013-10-08 02:02:00,74.0,73.0,29.75,South,175,0.0,-999.0,98,-99.99,,,-99.99,,2013-10-08 06:02:00,
2013-10-08 02:12:00,74.0,73.0,29.75,South,175,0.0,-999.0,98,-99.99,,,-99.99,,2013-10-08 06:12:00,
2013-10-08 02:22:00,75.0,74.0,29.75,South,175,0.0,-999.0,98,-99.99,,,-99.99,,2013-10-08 06:22:00,
2013-10-08 02:32:00,75.0,74.0,29.75,South,175,0.0,-999.0,98,-99.99,,,-99.99,,2013-10-08 06:32:00,
2013-10-08 02:52:00,75.0,74.0,29.75,WSW,244,0.0,-999.0,98,-99.99,,,-99.99,,2013-10-08 06:52:00,
2013-10-08 03:02:00,75.0,74.0,29.75,WSW,244,0.0,-999.0,98,-99.99,,,-99.99,,2013-10-08 07:02:00,
2013-10-08 03:12:00,75.0,74.0,29.75,WSW,244,0.0,-999.0,98,-99.99,,,-99.99,,2013-10-08 07:12:00,
2013-10-08 03:21:00,75.0,74.0,29.75,SSW,213,0.0,-999.0,98,-99.99,,,-99.99,,2013-10-08 07:21:00,
2013-10-08 03:32:00,75.0,74.0,29.75,SSW,213,0.0,-999.0,98,-99.99,,,-99.99,,2013-10-08 07:32:00,
2013-10-08 03:52:00,75.0,74.0,29.75,SSW,198,0.0,-999.0,98,-99.99,,,-99.99,,2013-10-08 07:52:00,
2013-10-08 04:02:00,75.0,74.0,29.75,SSW,198,0.0,-999.0,98,-99.99,,,-99.99,,2013-10-08 08:02:00,
2013-10-08 04:12:00,75.0,74.0,29.75,SSW,198,0.0,-999.0,98,-99.99,,,-99.99,,2013-10-08 08:12:00,
2013-10-08 04:22:00,75.0,74.0,29.75,SSW,206,0.0,-999.0,98,-99.99,,,-99.99,,2013-10-08 08:22:00,
2013-10-08 04:32:00,75.0,74.0,29.75,SSW,206,0.0,-999.0,98,-99.99,,,-99.99,,2013-10-08 08:32:00,
2013-10-08 04:52:00,75.0,74.0,29.75,SSW,206,0.0,-999.0,98,-99.99,,,-99.99,,2013-10-08 08:52:00,
2013-10-08 05:02:00,75.0,74.0,29.75,SSW,206,0.0,-999.0,98,-99.99,,,-99.99,,2013-10-08 09:02:00,
2013-10-08 05:12:00,75.0,74.0,29.75,SSW,206,0.0,-999.0,98,-99.99,,,-99.99,,2013-10-08 09:12:00,
2013-10-08 05:22:00,75.0,74.0,29.76,WSW,248,1.0,-999.0,98,-99.99,,,-99.99,,2013-10-08 09:22:00,
2013-10-08 05:33:00,75.0,74.0,29.76,WSW,248,1.0,-999.0,98,-99.99,,,-99.99,,2013-10-08 09:33:00,
2013-10-08 05:53:00,74.0,73.0,29.77,West,272,1.0,-999.0,98,-99.99,,,-99.99,,2013-10-08 09:53:00,
2013-10-08 06:03:00,74.0,73.0,29.77,West,272,1.0,-999.0,98,-99.99,,,-99.99,,2013-10-08 10:03:00,
2013-10-08 06:13:00,74.0,73.0,29.77,West,272,1.0,-999.0,98,-99.99,,,-99.99,,2013-10-08 10:13:00,
2013-10-08 06:23:00,74.0,73.0,29.78,WSW,258,1.0,-999.0,98,-99.99,,,-99.99,,2013-10-08 10:23:00,
2013-10-08 06:31:00,74.0,73.0,29.79,West,280,1.0,-999.0,97,-99.99,,,-99.99,,2013-10-08 10:31:00,
2013-10-08 06:33:00,74.0,73.0,29.78,WSW,258,1.0,-999.0,98,-99.99,,,-99.99,,2013-10-08 10:33:00,
2013-10-08 06:53:00,74.0,73.0,29.79,West,280,1.0,-999.0,97,-99.99,,,-99.99,,2013-10-08 10:53:00,
2013-10-08 07:02:00,74.0,73.0,29.79,West,280,1.0,-999.0,97,-99.99,,,-99.99,,2013-10-08 11:02:00,
2013-10-08 07:12:00,74.0,73.0,29.79,West,280,1.0,-999.0,97,-99.99,,,-99.99,,2013-10-08 11:12:00,
2013-10-08 07:22:00,74.0,73.0,29.79,West,280,1.0,-999.0,97,-99.99,,,-99.99,,2013-10-08 11:22:00,
2013-10-08 08:52:00,75.0,74.0,29.82,WSW,243,0.0,-999.0,97,-99.99,,,-99.99,,2013-10-08 12:52:00,
2013-10-08 09:12:00,75.0,74.0,29.82,WSW,243,0.0,-999.0,97,-99.99,,,-99.99,,2013-10-08 13:12:00,
2013-10-08 09:22:00,75.0,74.0,29.83,SW,216,0.0,-999.0,96,-99.99,,,-99.99,,2013-10-08 13:22:00,
2013-10-08 09:32:00,75.0,74.0,29.83,SW,216,0.0,-999.0,96,-99.99,,,-99.99,,2013-10-08 13:32:00,
2013-10-08 09:42:00,75.0,74.0,29.83,SW,216,0.0,-999.0,96,-99.99,,,-99.99,,2013-10-08 13:42:00,
2013-10-08 09:52:00,76.0,74.0,29.84,WSW,248,0.0,-999.0,93,-99.99,,,-99.99,,2013-10-08 13:52:00,
2013-10-08 10:02:00,76.0,74.0,29.84,WSW,248,0.0,-999.0,93,-99.99,,,-99.99,,2013-10-08 14:02:00,
2013-10-08 10:22:00,77.0,74.0,29.84,WSW,246,1.0,-999.0,90,-99.99,,,-99.99,,2013-10-08 14:22:00,
2013-10-08 10:32:00,77.0,74.0,29.84,WSW,246,1.0,-999.0,90,-99.99,,,-99.99,,2013-10-08 14:32:00,
2013-10-08 10:52:00,78.0,74.0,29.85,WSW,257,1.0,-999.0,87,-99.99,,,-99.99,,2013-10-08 14:52:00,
2013-10-08 11:01:00,78.0,74.0,29.85,WSW,257,1.0,-999.0,87,-99.99,,,-99.99,,2013-10-08 15:01:00,
2013-10-08 11:11:00,78.0,74.0,29.85,WSW,257,1.0,-999.0,87,-99.99,,,-99.99,,2013-10-08 15:11:00,
2013-10-08 11:22:00,79.0,74.0,29.85,West,274,1.0,-999.0,86,-99.99,,,-99.99,,2013-10-08 15:22:00,
2013-10-08 11:33:00,79.0,74.0,29.85,West,274,1.0,-999.0,86,-99.99,,,-99.99,,2013-10-08 15:33:00,
2013-10-08 11:44:00,79.0,74.0,29.85,West,274,1.0,-999.0,86,-99.99,,,-99.99,,2013-10-08 15:44:00,
2013-10-08 11:53:00,79.0,74.0,29.85,NNW,342,3.0,-999.0,84,-99.99,,,-99.99,,2013-10-08 15:53:00,
2013-10-08 12:01:00,81.0,75.0,29.85,West,270,3.0,-999.0,81,-99.99,,,-99.99,,2013-10-08 16:01:00,
2013-10-08 12:03:00,79.0,74.0,29.85,NNW,342,3.0,-999.0,84,-99.99,,,-99.99,,2013-10-08 16:03:00,
2013-10-08 12:13:00,79.0,74.0,29.85,NNW,342,3.0,-999.0,84,-99.99,,,-99.99,,2013-10-08 16:13:00,
2013-10-08 12:23:00,81.0,75.0,29.85,West,270,3.0,-999.0,81,-99.99,,,-99.99,,2013-10-08 16:23:00,
2013-10-08 12:33:00,81.0,75.0,29.85,West,270,3.0,-999.0,81,-99.99,,,-99.99,,2013-10-08 16:33:00,
2013-10-08 12:42:00,81.0,75.0,29.85,West,270,3.0,-999.0,81,-99.99,,,-99.99,,2013-10-08 16:42:00,
2013-10-08 12:53:00,81.0,75.0,29.85,West,270,3.0,-999.0,81,-99.99,,,-99.99,,2013-10-08 16:53:00,